Wind_Speed
13 10 16 17 16 13 15 11 12 14 12 12 14 11 8 5 5 1 4 4 6 9
17 13 12 13 14 14 14 10 6 13 11 11 10 10 9 8 4 4 6 5 5 9
19 19 16 13 15 12 14 16 19 14 12 13 11 10 9 7 5 6 4 4 7 9
21 19 20 15 11 12 12 9 13 17 16 16 13 11 10 10 8 8 11 11 8 8
22 21 21 23 17 15 14 11 10 17 20 17 15 13 12 11 12 8 12 11 10 9
24 22 23 24 24 17 16 16 15 15 17 14 14 14 14 13 11 13 11 13 11 11
12 17 20 21 20 18 18 17 19 18 16 17 17 15 15 15 15 15 14 12 13 15
10 5 8 15 16 18 14 18 18 19 20 19 19 19 19 18 17 20 19 17 17 16
10 7 11 8 6 14 15 17 16 18 19 20 19 20 20 21 22 22 23 20 19 20
11 8 7 9 8 4 5 9 12 15 17 20 20 21 21 21 21 23 23 21 21 21
18 17 14 12 10 9 8 4 4 4 9 16 20 20 22 23 24 23 22 21 21 22
18 14 15 18 16 14 10 9 7 7 7 5 10 15 19 23 24 24 27 26 25 25
14 12 17 11 14 14 13 12 11 10 9 11 13 10 11 14 21 25 24 21 24 26
14 14 14 13 12 14 16 15 14 12 12 12 12 13 13 13 17 20 24 25 26 24
Wind_Direction
183 185 179 184 191 196 186 175 197 201 209 193 178 178 214 217 195 197 301 337 345 355
186 198 191 194 203 204 181 208 206 195 212 204 183 179 212 239 244 274 272 277 313 328
203 205 213 215 204 202 210 205 206 188 204 210 207 196 215 226 243 235 259 274 287 306
211 215 216 222 201 173 174 219 182 193 194 201 201 200 210 228 219 230 235 248 262 297
213 210 213 219 213 192 184 196 204 214 210 201 203 213 221 225 223 227 230 240 242 250
223 213 212 216 219 209 196 197 199 199 205 212 215 218 224 235 231 223 239 245 243 248
208 218 228 225 218 215 220 216 206 210 214 214 216 227 230 238 242 247 245 246 250 258
42 63 196 224 233 229 224 225 228 221 221 224 225 227 229 232 240 239 244 247 252 258
62 38 25 46 178 214 227 235 232 238 238 236 234 236 236 244 244 241 244 248 251 255
75 59 51 21 40 83 188 216 230 240 246 250 251 249 248 255 255 249 250 249 247 250
46 51 49 48 39 38 40 38 36 232 250 256 250 252 255 254 263 265 263 261 260 256
35 27 16 27 29 25 17 10 338 330 321 320 263 259 259 262 258 266 265 267 268 268
14 14 8 357 5 0 12 5 352 329 319 295 293 284 274 282 271 271 273 275 269 269
357 353 352 347 354 340 338 338 341 337 346 347 341 321 309 307 292 282 276 272 273 268
Height
848 851 853 854 857 861 862 863 865 867 869 869 869 870 873 873 875 875 875 875 874 874
848 849 851 852 856 860 861 861 863 865 866 869 869 869 872 872 873 874 875 875 875 873
845 848 849 852 855 857 858 857 858 861 865 867 868 868 870 871 872 874 874 875 875 874
843 846 849 851 854 855 855 857 859 860 862 866 866 866 868 869 871 873 874 875 875 875
840 843 847 849 851 855 857 857 859 861 863 863 863 863 865 866 868 869 872 873 874 874
837 840 843 846 848 850 853 855 857 859 861 861 861 862 864 865 865 867 868 871 871 871
836 838 844 845 844 846 849 853 854 854 856 857 859 860 861 862 862 864 866 867 868 867
838 836 839 843 843 843 846 849 851 852 853 854 855 856 857 858 859 860 862 863 863 863
835 840 842 840 841 841 844 845 847 849 851 852 852 853 854 855 855 856 857 858 857 858
841 842 841 841 841 839 840 841 843 845 847 847 848 850 851 851 852 853 853 853 853 854
844 842 844 843 840 841 841 840 840 841 843 844 844 846 847 848 847 847 848 848 849 849
843 844 845 841 841 840 839 838 839 839 841 841 840 842 843 843 842 842 841 842 844 844
845 845 845 842 841 843 839 839 838 838 838 837 836 836 836 838 838 837 837 838 837 837
847 846 844 844 843 842 839 838 837 836 834 834 833 832 833 833 832 833 832 832 833 833